Starlink 5191

operational
NORAD ID: 54763 Int'l Des: 2022-175 Owner: SPXS Country: US Constellation: starlink
LEOCIRCULAR

Starlink 5191について

説明を読み込み中...

リアルタイム位置

3D地球を読み込み中...

次回通過

高度履歴

Altitude vs Time

uPlot chart will show altitude changes over time

軌道要素

1 54763U 22175F 25306.15611250 .00000262 00000-0 34569-4 0 9990
2 54763 53.2174 256.7936 0001178 94.3047 265.8080 15.08833240160663
Epoch: Nov 2, 2025 • Age: 16 hours

現在のステータス

高度 543.9 km
速度 7.60 km/s
衛星直下点 45.87°N, 38.96°E
打ち上げ日 Dec 17, 2022
運用期間 2.8 years
タイプ internet

技術仕様

分類 Payload
質量 305.00 kg
乾燥質量 290.00 kg
総質量 305.00 kg
長さ 0.20 m
直径 2.80 m
スパン 9.00 m
形状 Box + pan
製造者 SPXS
バスタイプ Starlink
フェーズステータス In Orbit
所有者/国 SPXS/US

大規模コンステレーション

Loading constellations...